Fairbanks, AK

11:38 PM AKDT on September 23, 2017 (GMT -0800)
Fairbanks International

Weather History for PAFA - September, 2012

Change the Weather History Date:

Monday, September 17, 2012

  Actual Average Record
Temperature  
Mean Temperature 43 °F 44 °F  
Max Temperature 54 °F 54 °F 71 °F (1967)
Min Temperature 31 °F 35 °F 15 °F (1909)
Degree Days  
Heating Degree Days 22 21  
Month to date heating degree days 311 289  
Since 1 July heating degree days 709 678  
Cooling Degree Days 0 0  
Month to date cooling degree days 0 0  
Year to date cooling degree days 34 61  
Moisture  
Dew Point 31 °F    
Average Humidity 53    
Maximum Humidity 82    
Minimum Humidity 27    
Precipitation  
Precipitation 0.00 in 0.04 in 0.68 in (1935)
Month to date precipitation 0.22 0.71  
Year to date precipitation 7.43 8.28  
Snow  
Snow 0.00 in 0.10 in 1.50 in (1992)
Month to date snowfall 0.0 0.6  
Since 1 July snowfall 0.0 0.6  
Since 1 September snowfall 0.0 0.6  
Snow Depth 0.00 in    
Sea Level Pressure  
Sea Level Pressure 29.63 in    
Wind  
Wind Speed 5 mph (WSW)    
Max Wind Speed 14 mph    
Max Gust Speed 23 mph    
Visibility 10 miles    
Events      
T = Trace of Precipitation, MM = Missing Value Source: NWS Daily Summary

Daily Weather History Graph

Daily Weather History Graph

Search for Another Location

Airport or City:

Trip Planner

Search our weather history database for the weather conditions in past years. The results will help you decide how hot, cold, wet, or windy it might be!

Date:

Astronomy

Sep. 17, 2012 Rise Set
Actual Time 7:21 AM AKDT 8:08 PM AKDT
Civil Twilight 6:31 AM AKDT 8:57 PM AKDT
Nautical Twilight 5:29 AM AKDT 9:59 PM AKDT
Astronomical Twilight 4:13 AM AKDT 11:13 PM AKDT
Moon 10:32 AM AKDT (9/17) 7:37 PM AKDT (9/17)
Length of Visible Light 14h 26m
Length of Day
12h 46m
Waxing Crescent, 4% of the Moon is Illuminated
Sep 17
Waxing Crescent
Sep 22
First Quarter
Sep 29
Full
Oct 7
Last Quarter
Oct 15
New

Hourly Weather History & Observations

Time (AKDT) Temp. Windchill Dew Point Humidity Pressure Visibility Wind Dir Wind Speed Gust Speed Precip Events Conditions
12:53 AM 46.0 °F - 36.0 °F 68% 29.34 in 10.0 mi Calm Calm - N/A   Mostly Cloudy
1:53 AM 43.0 °F 41.3 °F 34.0 °F 71% 29.36 in 10.0 mi Variable 3.5 mph - N/A   Mostly Cloudy
2:53 AM 46.9 °F - 35.1 °F 63% 29.40 in 10.0 mi Calm Calm - N/A   Mostly Cloudy
3:53 AM 52.0 °F - 30.9 °F 45% 29.43 in 10.0 mi SW 9.2 mph 18.4 mph N/A   Mostly Cloudy
4:53 AM 53.1 °F - 32.0 °F 45% 29.45 in 10.0 mi WSW 13.8 mph 23.0 mph N/A   Mostly Cloudy
5:53 AM 53.1 °F - 30.9 °F 43% 29.48 in 10.0 mi Variable 6.9 mph 17.3 mph N/A   Mostly Cloudy
6:53 AM 52.0 °F - 30.9 °F 45% 29.50 in 10.0 mi SSW 6.9 mph - N/A   Mostly Cloudy
7:53 AM 52.0 °F - 30.0 °F 43% 29.52 in 10.0 mi SSW 9.2 mph 17.3 mph N/A   Mostly Cloudy
8:53 AM 51.1 °F - 32.0 °F 48% 29.57 in 10.0 mi WSW 8.1 mph - N/A   Mostly Cloudy
9:53 AM 48.9 °F - 37.0 °F 64% 29.60 in 10.0 mi WNW 10.4 mph - N/A   Mostly Cloudy
10:53 AM 50.0 °F - 36.0 °F 59% 29.63 in 10.0 mi West 13.8 mph - N/A   Scattered Clouds
11:53 AM 51.1 °F - 34.0 °F 52% 29.67 in 10.0 mi West 11.5 mph - N/A   Mostly Cloudy
12:53 PM 48.9 °F - 33.1 °F 54% 29.71 in 10.0 mi WNW 13.8 mph 18.4 mph N/A   Mostly Cloudy
1:53 PM 52.0 °F - 30.9 °F 45% 29.72 in 10.0 mi West 10.4 mph - N/A   Mostly Cloudy
2:53 PM 53.1 °F - 28.0 °F 38% 29.73 in 10.0 mi WNW 11.5 mph 19.6 mph N/A   Scattered Clouds
3:53 PM 53.1 °F - 28.9 °F 40% 29.74 in 10.0 mi Calm Calm - N/A   Scattered Clouds
4:53 PM 53.1 °F - 28.0 °F 38% 29.75 in 10.0 mi Variable 6.9 mph - N/A   Scattered Clouds
5:53 PM 53.1 °F - 27.0 °F 37% 29.76 in 10.0 mi SW 6.9 mph - N/A   Mostly Cloudy
6:53 PM 52.0 °F - 27.0 °F 38% 29.77 in 10.0 mi SSW 5.8 mph - N/A   Mostly Cloudy
7:53 PM 48.9 °F - 27.0 °F 43% 29.79 in 10.0 mi Calm Calm - N/A   Scattered Clouds
8:53 PM 39.0 °F - 34.0 °F 82% 29.80 in 10.0 mi Calm Calm - N/A   Partly Cloudy
9:53 PM 37.0 °F - 32.0 °F 82% 29.81 in 10.0 mi Calm Calm - N/A   Partly Cloudy
10:53 PM 34.0 °F - 28.9 °F 82% 29.81 in 10.0 mi Calm Calm - N/A   Partly Cloudy
11:53 PM 34.0 °F 31.0 °F 27.0 °F 75% 29.80 in 10.0 mi ENE 3.5 mph - N/A   Partly Cloudy